Location: Peebles
(55.6412°N, 3.1714°W)
Time: 14:29:36
(UTC+01:00)

deb Agena D - Pass Details

Date: 17 September 2024
Orbit: 793 x 976 km, 99.8° (Epoch: 03 October)

Event Time Altitude Azimuth Distance (km) Brightness Sun altitude
Rises 02:22:55 0° 23° (NNE) 3,428 10.6 -30.2°
Reaches altitude 10° 02:25:37 10° 36° (NE) 2,516 9.5 -30.0°
Maximum altitude 02:30:22 28° 94° (E) 1,621 7.8 -29.8°
Enters shadow 02:31:25 26° 112° (ESE) 1,686 7.7 -29.7°
